Regional Weather Roundup
Issued by NWS Albany, NY

Home | Current Version | Previous Version | Text Only | Print | Product List | Glossary On
Versions: 1 2 3 4 5 6 7 8 9 10 11 12 13 14 15 16 17 18 19 20 21 22 23 24 25 26 27
000
ASUS41 KALY 270710
RWRALY

NEW YORK STATE HOURLY WEATHER ROUNDUP
NATIONAL WEATHER SERVICE ALBANY NY
300 AM EDT FRI MAY 27 2016

NOTE: "FAIR" INDICATES FEW OR NO CLOUDS BELOW 12,000 FEET WITH NO
SIGNIFICANT WEATHER AND/OR NO OBSTRUCTIONS TO VISIBILITY.

NYZ032-033-038>043-046>054-057>066-NYZ062>081-082-084-270800-
EAST


CITY           SKY/WX    TMP DP  RH WIND       PRES   REMARKS
ALBANY         CLOUDY    74  50  42 S8        30.02S
GLENS FALLS    CLOUDY    65  60  84 CALM      30.02R
POUGHKEEPSIE   CLOUDY    67  55  65 CALM      30.03F
MONTGOMERY     CLOUDY    66  59  78 CALM      30.04F
WHITE PLAINS   CLOUDY    63  57  81 CALM      30.06S
ISLIP          CLEAR     63  59  87 S5        30.07R
NEW YORK CITY  MOCLDY    71  64  78 CALM      30.05S
CENTRAL PARK   CLEAR     74  54  49 VRB3      30.08S
$$

NYZ005>009-017-018-044>046-055-056-270800-
CENTRAL


CITY           SKY/WX    TMP DP  RH WIND       PRES   REMARKS
FULTON         PTCLDY    63  61  93 CALM      29.98F FOG
SYRACUSE       MOCLDY    65  60  84 MISG      29.98R
ROME           CLOUDY    63  60  90 CALM      30.02R
ELMIRA         CLEAR     59  56  89 CALM      30.04R
BINGHAMTON     CLEAR     67  57  70 S6        30.06S
MONTICELLO     PTCLDY    64  57  77 CALM      30.10S
$$

NYZ026>034-041>043-087-270800-
NORTH


CITY           SKY/WX    TMP DP  RH WIND       PRES   REMARKS
WATERTOWN      CLEAR     57  55  93 CALM      29.97S FOG
FORT DRUM      NOT AVBL
MASSENA        PTCLDY    58  52  80 CALM      29.97F
SARANAC LAKE   CLOUDY    56  51  84 CALM      30.03S
PLATTSBURGH    CLOUDY    60  56  86 SE5       29.98S
$$

NYZ001>004-010>016-019>021-085-270800-
WEST


CITY           SKY/WX    TMP DP  RH WIND       PRES   REMARKS
BUFFALO        PTCLDY    69  62  78 S6        29.98F
DUNKIRK        CLEAR     71  63  75 S12       29.98F
JAMESTOWN      PTCLDY    64  61  88 S9        30.05S
WELLSVILLE     CLEAR     67  60  78 SW7       30.09F
ROCHESTER      CLEAR     68  64  87 SW7       29.99F
PENN YAN       MOCLDY    67  61  81 SW5       30.03S
$$

             KEY
       WCI = WIND CHILL INDEX
       VSB = VISIBILITY
       HX  = HEAT INDEX
$$




USA.gov is the U.S. government's official web portal to all federal, state and local government web resources and services.